Location: Choisy
(48.7685°N, 2.4187°E)
Time: 10:09:28
(UTC+00:00)

ATLAS 3B R/B - Pass Details

Date: 08 December 2023
Orbit: 947 x 1247 km, 63.8° (Epoch: 10 February)

Event Time Altitude Azimuth Distance (km) Brightness Sun altitude
Exits shadow 06:14:54 14° 302° (WNW) 2,785 4.2 -11.7°
Maximum altitude 06:19:51 27° 351° (N) 2,149 4.0 -11.0°
Drops below altitude 10° 06:26:13 10° 47° (NE) 3,205 5.5 -10.0°
Sets 06:29:37 0° 59° (ENE) 4,189 6.3 -9.5°
